www.pogodaiklimat.ru

Погода и климат >> Архив погоды >> Австралия >> Северная территория >> Ладжаману


ПОГОДА в Ладжаману

  • Прогноз погоды в Ладжаману
  • Монитор погоды в Ладжаману

АРХИВ ПОГОДЫ в Ладжаману

Время (UTC), дата Ветер
(напр.,м/с)
 
Видим.   Явления Облачность Т
(С)
Тd
(С)
f
(%)
Тe
(С)
Тes
(С)
Комфортность P
(гПа)
Po
(гПа)
Тmin
(С)
Tmax
(С)
R
(мм)
R24
(мм)
S
(см)
20 19.03 СЗ 3 н/о н/о +22.6 +4.2 30 +23 +23 комфорт 1005.6 970.6
23 19.03 Ю 3 н/о н/о +28.0 -1.0 15 +25 +25 комфорт 1008.0 972.9
02 20.03 СВ 4 н/о н/о +38.4 0.0 9 +35 +35 очень
жарко
1007.8 972.7 +21.1
05 20.03 ЮВ 5 н/о н/о +40.7 -1.8 7 +37 +37 очень
жарко
1004.9 969.9
08 20.03 В 5 н/о н/о +41.2 +0.4 8 +37 +37 очень
жарко
1003.7 968.8
11 20.03 штиль 0 н/о н/о +32.0 +0.2 13 +29 +29 жарко 1005.4 970.4
14 20.03 Ю 2 н/о н/о +28.4 +1.8 18 +26 +26 жарко 1006.5 971.5 +43.1
17 20.03 ЮВ 4 н/о н/о +29.9 +3.0 18 +28 +28 жарко 1004.9 969.9
20 20.03 ЮВ 2 н/о н/о +26.2 +3.5 23 +25 +25 комфорт 1005.4 970.4
23 20.03 В 6 н/о н/о +34.2 +3.9 15 +31 +31 жарко 1007.4 972.3
02 21.03 В 9 н/о н/о +39.3 +0.6 9 +36 +36 очень
жарко
1007.3 972.2 +25.2
05 21.03 ЮВ 5 н/о н/о +41.7 +0.8 8 +38 +38 очень
жарко
1003.7 968.8
08 21.03 ЮВ 6 н/о н/о +41.5 +0.6 8 +38 +38 очень
жарко
1002.7 967.8
11 21.03 ЮВ 3 н/о н/о +34.3 -0.4 11 +31 +31 жарко 1004.4 969.4
14 21.03 В 3 н/о н/о +31.0 -0.6 13 +28 +28 жарко 1005.5 970.5 +43.4
17 21.03 ЮВ 2 н/о н/о +27.5 +0.3 17 +25 +25 комфорт 1004.6 969.6
23 21.03 В 5 н/о н/о +31.7 +1.9 15 +29 +29 жарко 1006.0 971.0
02 22.03 В 4 н/о н/о +37.9 +10.3 19 +37 +37 очень
жарко
1005.8 970.8 +24.5
05 22.03 В 5 н/о н/о +41.9 +4.0 10 +39 +39 очень
жарко
1002.5 967.6
08 22.03 ЮВ 5 н/о н/о +40.2 +4.1 11 +37 +37 очень
жарко
1001.1 966.3
11 22.03 В 2 н/о н/о +33.2 +5.7 18 +31 +31 жарко 1002.8 967.9
14 22.03 В 3 н/о н/о +32.2 +8.4 23 +31 +31 жарко 1004.7 969.7 +43.1
17 22.03 штиль 0 н/о н/о +29.0 +9.2 29 +29 +29 жарко 1003.6 968.7
20 22.03 СЗ 2 н/о н/о +27.5 +9.3 32 +28 +28 жарко 1002.7 967.8
23 22.03 З 2 н/о н/о +33.2 +11.1 26 +33 +33 жарко 1004.7 969.7
02 23.03 В 6 н/о н/о +37.7 +13.0 23 +38 +38 очень
жарко
1004.7 969.7 +27.2
05 23.03 В 5 н/о н/о +40.1 +10.4 17 +39 +39 очень
жарко
1001.9 967.0
08 23.03 В 3 н/о н/о +38.5 +9.1 17 +37 +37 очень
жарко
1000.8 966.0
11 23.03 СВ 2 н/о н/о +34.0 +9.3 22 +33 +33 жарко 1002.4 967.5
14 23.03 В 2 н/о н/о +29.9 +8.3 26 +29 +29 жарко 1003.6 968.7 +41.7
17 23.03 С 5 н/о н/о +30.0 +15.3 41 +33 +33 душно 1003.4 968.5
20 23.03 В 3 н/о н/о +27.5 +15.2 47 +30 +30 жарко 1003.0 968.1
23 23.03 Ю 2 н/о н/о +29.8 +15.1 41 +32 +32 душно 1005.0 970.0
02 24.03 ЮЗ 6 н/о н/о +36.2 +14.8 28 +37 +37 очень
жарко
1004.7 969.7 +27.1
05 24.03 Ю 5 н/о н/о +39.9 +12.7 20 +40 +40 очень
душно
1000.9 966.1
08 24.03 З 5 н/о н/о +33.0 +16.8 38 +36 +36 очень
душно
1001.0 966.2
11 24.03 СЗ 5 н/о {туман} н/о +29.8 +19.8 55 +36 +36 очень
душно
1003.2 968.3 0.2
14 24.03 СЗ 4 н/о н/о +28.7 +21.0 63 +36 +36 очень
душно
1004.8 969.8 +40.5
17 24.03 З 4 н/о н/о +27.1 +17.8 57 +32 +32 очень
душно
1003.9 969.0
20 24.03 СЗ 2 н/о н/о +26.3 +18.2 61 +31 +31 душно 1005.7 970.7
23 24.03 ЮЗ 4 н/о н/о +29.2 +19.2 55 +35 +35 очень
душно
1008.1 973.0 0.2
02 25.03 ЮЗ 6 н/о н/о +35.3 +19.2 39 +40 +40 очень
душно
1007.3 972.2 +25.4
05 25.03 З 5 н/о туман местами н/о +37.8 +15.6 27 +39 +39 очень
душно
1004.4 969.4 0.2
08 25.03 СЗ 6 н/о н/о +32.2 +17.3 41 +36 +36 очень
душно
1004.9 969.9
11 25.03 СЗ 3 н/о {туман} н/о +28.8 +21.8 66 +37 +37 очень
душно
1007.3 972.2 0.8
14 25.03 ЮЗ 4 н/о н/о +29.1 +20.0 58 +35 +35 очень
душно
1008.7 973.6 +40.1
17 25.03 ЮЗ 3 н/о н/о +28.8 +18.6 54 +34 +34 очень
душно
1008.8 973.7
20 25.03 Ю 4 н/о н/о +27.3 +19.6 63 +33 +33 очень
душно
1009.5 974.4
23 25.03 В 8 н/о н/о +29.8 +16.2 44 +33 +33 душно 1011.1 975.9 1
02 26.03 В 6 н/о н/о +34.1 +15.1 32 +36 +36 душно 1010.9 975.7 +26.2
05 26.03 ЮВ 7 н/о н/о +37.2 +12.6 23 +37 +37 очень
жарко
1008.0 972.9
08 26.03 ЮВ 5 н/о н/о +37.6 +11.5 21 +37 +37 очень
жарко
1007.3 972.2
11 26.03 ЮВ 3 н/о н/о +33.5 +10.8 25 +33 +33 жарко 1009.2 974.1
14 26.03 В 3 н/о н/о +28.6 +10.8 33 +29 +29 жарко 1010.5 975.3 +38.4
17 26.03 В 6 н/о н/о +28.8 +14.2 41 +31 +31 жарко 1010.1 974.9

 

Местоположение метеостанции Ладжаману (Северная территория, Австралия): широта -18.33 долгота 130.63 высота над уровнем моря 317 м.

В архиве по умолчанию представлена погода в Ладжаману за последнюю неделю. Архивные данные за месяц целиком и за предыдущие месяцы, начиная с января 2011 года, Вы можете получить, выбрав интересующий диапазон дат из раскрывающегося списка и нажав кнопку "Ввод!".


*Определитесь, кто Вы:
робот инопланетянин человек

Внимание! Время в таблицах - всемирное. Для получения местного времени необходимо прибавить поправку, которая равна 9.5 ч.

Смотрите также архив погоды в соседних городах и на ближайших метеорологических станциях:

Погода в Раббит Флат (Северная территория, Австралия) (216 км)
Погода в Виктория-Ривер (Северная территория, Австралия) (219 км)
Погода в Аэропорту Аргайл (Западная Австралия, Австралия) (299 км)
Погода в Холс Крик (Западная Австралия, Австралия) (314 км)
Погода на Базе ВВС Delamere Weapons Range (Северная территория, Австралия) (318 км)
Погода в Кунунарре (Западная Австралия, Австралия) (349 км)
Погода в Дейли Уотерс (Северная территория, Австралия) (372 км)
Погода в Манбуллу Ксиро (Северная территория, Австралия) (376 км)
Погода в Теннант-Крике (Северная территория, Австралия) (400 км)
Погода в Уиндеме (Западная Австралия, Австралия) (411 км)

Пояснения к столбцам:

Ветер - указаны скорость ветра в м/с - средняя за 10 мин, порывы в срок и между сроками (в фигурных скобках) и направление, откуда дует ветер: С - северный, СВ - северо-восточный, В - восточный, ЮВ - юго-восточный, Ю - южный, ЮЗ - юго-западный, З - западный, СЗ - северо-западный.
Видимость - горизонтальная дальность видимости в метрах или километрах. При видимости от 1 до 10 км при отсутствии осадков обычно наблюдается дымка, при ухудшении видимости до 1 км и менее - туман. В сухую погоду видимость может ухудшаться дымом, пылью или мглою.
Явления - указаны атмосферные явления, наблюдавшиеся в срок или в последний час перед сроком; фигурными скобками обозначены явления, наблюдавшиеся между сроками (за 1-3 часа до срока); квадратными скобками обозначены град или гололедные отложения с указанием их диаметра в мм.
Облачность - указаны через наклонную черту общая и нижняя облачность в баллах и высота нижней границы облаков в метрах; квадратными скобками обозначены формы облаков: Ci - перистые, Cs - перисто-слоистые, Cc - перисто-кучевые, Ac - высококучевые, As - высокослоистые, Sc - слоисто-кучевые, Ns - слоисто-дождевые, Cu - кучевые, Cb - кучево-дождевые. Подробнее классификацию облаков см. в Атласе облаков (PDF).
T - Температура воздуха - температура, измеренная на высоте 2 м над землей.
Td - Температура точки росы - температура, при понижении до которой содержащийся в воздухе водяной пар достигнет насыщения.
f - Относительная влажность воздуха - влажноcть воздуха, измеренная на высоте 2 м над землей.
Te - Эффективная температура - температура, которую ощущает одетый по сезону человек в тени. Характеристика душности погоды. При расчете учитывается влияние влажности воздуха и скорости ветра на теплоощущения человека.
Tes - Эффективная температура на солнце - температура, которую ощущает человек, с поправкой на солнечный нагрев. Характеристика знойности погоды. Зависит от высоты солнца над горизонтом, облачности и скорости ветра. Ночью, в пасмурную погоду, а также при ветре 12 м/с и более поправка равна нулю.
P - Атмосферное давление - приведенное к уровню моря атмосферное давление.
Po - Атмосферное давление - измеренное на уровне метеостанции атмосферное давление.
Tmin - Минимальная температура - минимум температуры воздуха на высоте 2 м над землей.
Tmax - Максимальная температура - максимум температуры воздуха на высоте 2 м над землей.
R - Количество осадков - Количество выпавших осадков за период времени, мм. При наведении курсора мыши на число - период времени, за который выпало указанное количество осадков.
R24 - Количество осадков - Количество выпавших осадков за 24 часа, мм.
S - Снежный покров - Высота снежного покрова, см. При наведении курсора мыши на число - состояние снежного покрова и степень покрытия местности в баллах.